Temp
58 62 62 61 60 60 60 60 60 59 58 58 58 57 56 55 54 56 48 52 54 40 42 44 44 47 46 49 45 44 43 41 39 35 40 41 40 39 37 38 36 35 32 32 27 26 28 41 38 31 38 42 41 41
56 61 61 61 60 60 60 60 59 59 58 58 57 57 56 55 54 56 51 53 54 46 42 47 45 45 44 45 46 43 45 45 48 42 41 40 37 36 37 41 36 35 38 36 35 39 41 42 41 43 42 40 40 40
55 61 61 60 60 60 60 60 59 58 57 57 57 57 57 56 55 56 54 52 53 45 44 47 42 47 49 46 48 44 44 46 44 43 40 35 34 40 39 40 39 36 37 37 33 39 38 40 42 42 43 41 42 43
54 60 60 60 59 60 60 59 59 58 57 56 56 56 55 55 54 55 54 51 55 48 37 40 48 43 47 50 48 47 45 43 42 40 35 35 36 38 41 39 40 41 37 37 38 39 39 39 41 41 41 42 43 44
54 60 60 59 59 59 59 59 58 57 56 56 56 55 55 54 53 52 50 49 53 55 36 40 43 45 47 49 47 49 48 45 43 38 36 36 39 38 37 37 37 39 41 39 42 43 42 41 42 41 40 41 42 41
54 59 59 58 59 59 58 58 57 56 56 55 56 55 55 54 53 63 42 52 49 53 39 35 42 42 45 46 44 42 42 40 38 40 37 38 36 39 33 37 42 42 43 45 40 43 42 42 42 42 40 41 42 42
53 58 58 58 59 58 57 56 56 56 56 55 55 53 52 51 51 53 52 50 48 52 36 32 35 41 42 43 42 41 40 36 40 36 38 40 37 37 34 36 42 41 42 42 44 42 39 40 40 41 41 42 43 43
53 58 58 58 58 58 56 56 56 55 55 54 54 53 53 52 51 51 50 48 50 43 40 31 29 38 43 40 39 39 37 36 32 34 37 38 35 35 28 41 40 41 42 41 42 43 43 42 41 41 42 42 41 42
54 58 58 58 58 57 56 56 55 55 55 54 52 51 53 46 47 50 49 49 49 46 33 34 35 33 41 36 37 38 38 33 33 34 36 36 34 29 40 38 39 40 40 40 42 42 41 40 40 41 41 42 40 40
55 57 57 58 57 57 56 55 55 55 53 52 55 53 42 41 46 48 50 48 38 35 36 31 38 33 40 37 32 35 33 30 30 33 33 29 35 40 38 43 44 42 43 43 39 37 39 40 40 40 40 41 40 40
56 56 56 57 56 56 55 55 55 53 53 48 39 38 42 44 47 44 34 36 34 34 34 35 37 33 38 38 33 33 30 27 28 30 29 33 32 35 40 41 44 45 44 45 45 44 44 43 40 40 40 41 41 41
56 56 56 56 56 55 55 55 54 53 48 46 43 43 42 37 35 36 31 32 34 38 32 36 36 38 35 38 34 31 28 27 29 31 28 29 37 37 39 40 41 43 43 42 43 42 42 41 42 41 41 41 40 41
56 56 55 55 55 55 56 56 57 50 50 47 41 36 35 33 33 35 31 32 32 32 32 35 33 35 34 34 30 31 28 29 32 27 30 34 37 37 39 40 40 43 42 42 41 42 42 41 41 41 41 41 41 41
56 55 55 55 55 56 57 54 53 53 50 37 35 33 34 32 36 38 42 41 38 36 35 37 33 36 34 31 29 29 26 29 24 24 30 38 37 37 40 41 39 39 40 41 41 41 41 41 41 41 41 41 40 40
56 55 54 55 55 56 54 55 56 50 43 36 36 36 33 37 34 34 34 35 36 39 36 33 33 35 29 26 28 25 21 23 27 32 38 39 38 39 39 40 41 40 40 41 41 41 41 41 41 41 41 41 41 40
55 54 53 55 56 55 54 53 47 42 35 35 34 32 32 33 29 33 34 32 39 38 37 37 29 29 27 28 24 26 27 28 35 36 39 38 37 39 39 40 40 38 41 41 41 41 41 40 40 40 40 41 40 40
54 50 53 55 55 53 56 44 41 41 38 33 32 34 40 42 37 33 37 36 42 38 33 31 30 31 27 26 27 31 30 38 39 37 37 39 38 39 40 41 40 38 41 41 41 41 41 40 40 40 40 40 40 40
55 52 52 54 53 53 42 36 37 35 30 28 32 33 33 37 37 36 37 40 40 33 33 33 30 25 27 27 28 35 36 37 38 37 38 39 41 40 40 40 40 40 41 41 41 41 40 39 40 41 40 40 40 40
53 51 52 53 55 40 37 32 34 29 27 29 31 32 33 35 37 39 39 41 37 37 32 32 31 31 32 35 37 36 36 36 34 35 37 40 40 39 40 40 40 41 41 41 40 41 41 41 42 42 41 41 40 40
52 52 50 55 52 34 31 28 32 29 26 28 30 30 31 32 36 38 37 35 35 34 32 29 33 36 36 37 39 40 39 38 35 33 33 36 39 39 39 39 40 41 40 39 40 38 40 40 41 41 41 41 41 40
51 49 52 50 33 33 30 28 28 29 28 28 30 30 29 33 32 33 34 35 34 33 32 35 34 36 37 38 40 40 38 39 39 39 37 33 37 40 38 39 40 40 39 39 40 40 39 41 42 42 41 41 41 41
43 51 37 36 30 28 27 30 29 30 29 28 28 29 27 27 27 31 33 32 32 33 35 34 35 34 35 35 37 40 40 43 43 42 40 37 34 35 36 38 38 38 39 40 40 40 41 42 41 40 40 41 39 41
49 40 33 31 26 26 25 31 28 29 26 25 28 25 25 26 29 34 30 31 33 35 35 34 35 37 37 38 40 40 41 40 39 38 38 40 39 40 39 38 40 39 38 38 40 40 40 39 39 40 40 40 40 40
40 29 25 24 25 22 26 25 28 27 27 24 23 21 23 26 29 27 27 29 32 32 33 33 35 33 35 36 37 37 39 42 40 40 40 38 37 37 40 39 39 41 41 41 39 39 39 39 38 40 39 39 39 39
27 22 24 20 24 22 22 23 24 25 21 23 22 21 23 27 24 24 24 27 28 31 32 35 35 36 35 36 37 38 39 41 39 37 37 41 40 36 36 37 38 39 39 38 37 38 38 38 39 39 38 38 38 38
18 22 22 22 22 22 22 19 20 22 22 21 21 25 26 24 20 21 26 29 31 32 33 35 35 36 36 37 35 34 37 43 42 38 35 39 41 39 37 35 34 36 38 40 40 38 38 38 38 38 38 37 37 38
17 19 24 29 27 27 25 28 29 24 20 18 21 22 22 18 20 26 32 36 34 36 38 40 40 39 36 35 38 39 38 42 44 42 40 38 40 42 41 38 36 40 39 38 39 39 39 38 38 38 38 38 39 39
22 24 21 25 26 28 24 24 23 20 22 26 26 20 20 24 24 30 34 39 38 38 39 40 40 40 38 38 37 36 34 34 34 34 35 35 37 38 38 40 41 38 39 39 39 40 40 40 39 39 38 38 38 38
24 27 28 23 23 23 24 24 23 26 29 31 25 24 24 26 29 34 37 36 38 36 34 33 34 37 36 36 37 37 35 37 36 32 33 33 33 35 36 37 38 39 38 38 38 39 39 40 40 39 39 39 39 39
24 28 22 20 19 19 22 27 26 30 28 28 27 26 26 26 33 37 35 35 34 34 34 35 35 35 33 33 31 32 37 41 42 40 35 35 37 39 37 36 37 36 36 38 38 38 39 39 38 38 37 36 37 37
26 25 22 21 20 24 26 28 29 29 28 29 32 28 25 26 29 35 36 37 37 37 35 33 35 37 36 34 34 33 32 34 35 38 39 40 39 38 37 37 37 36 37 37 37 38 38 37 37 37 36 36 36 37
25 23 23 19 20 25 28 26 26 26 26 26 25 27 28 28 25 27 30 35 35 34 36 37 35 35 38 39 40 42 42 39 35 36 37 38 38 37 36 35 35 35 36 36 37 37 37 37 37 37 37 36 36 36
24 25 25 23 22 22 26 26 24 23 24 23 24 27 28 29 24 26 31 35 38 37 37 38 39 39 38 39 39 38 40 38 38 38 38 39 39 37 35 35 35 36 36 36 37 37 36 36 36 36 36 36 36 36
MSLP
1011.11 1010.89 1011.99 1013.12 1014.17 1014.84 1015.83 1016.59 1017.16 1017.76 1018.21 1018.57 1018.73 1018.85 1019.28 1019.63 1020.03 1020.27 1023.62 1023.72 1023.51 1027.73 1030.94 1031.38 1031.40 1031.34 1031.57 1031.44 1031.73 1033.46 1034.37 1034.84 1034.76 1034.31 1034.21 1034.27 1034.36 1034.65 1034.83 1035.09 1035.50 1035.81 1036.11 1036.49 1036.78 1036.12 1035.82 1036.75 1037.38 1037.56 1037.62 1037.53 1037.46 1037.06
1010.64 1010.01 1011.40 1012.61 1013.71 1014.39 1015.28 1016.23 1016.96 1017.57 1018.01 1018.24 1018.67 1018.98 1019.26 1019.77 1019.99 1020.13 1023.00 1024.27 1024.40 1026.47 1031.48 1032.35 1032.91 1033.12 1032.96 1032.64 1032.35 1033.44 1033.24 1033.31 1033.50 1034.02 1034.79 1034.98 1034.83 1035.18 1034.81 1034.67 1035.94 1035.92 1036.09 1036.23 1036.31 1035.79 1036.49 1037.14 1037.32 1037.67 1038.00 1037.99 1037.55 1037.34
1010.28 1009.27 1010.74 1011.97 1013.24 1013.93 1014.71 1015.84 1016.71 1017.34 1017.83 1018.18 1018.65 1019.02 1019.28 1019.65 1019.94 1019.87 1022.66 1023.71 1024.28 1028.44 1031.87 1032.41 1033.12 1033.42 1033.42 1033.52 1033.29 1032.82 1033.71 1033.82 1034.19 1034.66 1035.19 1035.63 1035.58 1035.37 1034.76 1034.73 1035.18 1036.09 1036.67 1036.38 1036.61 1036.29 1036.88 1037.38 1037.76 1037.96 1037.97 1037.96 1037.87 1037.42
1009.31 1008.70 1009.99 1011.32 1012.72 1013.51 1014.15 1015.45 1016.49 1017.26 1017.70 1018.07 1018.63 1018.99 1019.37 1019.70 1019.89 1019.98 1021.80 1023.36 1023.63 1026.37 1030.23 1033.70 1033.84 1034.04 1034.31 1033.53 1033.32 1033.12 1033.22 1034.32 1034.88 1035.37 1035.81 1036.02 1036.09 1036.31 1035.53 1035.61 1035.49 1035.83 1036.39 1035.99 1035.88 1036.49 1037.15 1037.56 1037.73 1038.04 1038.18 1038.18 1037.75 1037.29
1008.64 1008.09 1009.35 1010.70 1012.07 1013.09 1013.69 1015.06 1016.21 1017.05 1017.62 1018.13 1018.68 1019.00 1019.34 1019.68 1019.95 1020.76 1022.15 1023.88 1023.56 1024.02 1030.12 1033.47 1034.36 1034.94 1034.73 1034.17 1033.85 1033.79 1033.87 1034.34 1035.14 1035.96 1036.45 1036.72 1036.97 1036.90 1036.87 1036.42 1035.07 1035.22 1034.76 1034.95 1034.78 1035.61 1036.27 1036.97 1037.75 1038.11 1038.09 1037.74 1037.45 1037.16
1007.63 1007.34 1008.59 1010.07 1011.35 1012.44 1013.29 1014.63 1015.94 1016.87 1017.56 1018.25 1018.70 1019.16 1019.45 1019.83 1019.82 1019.44 1023.09 1024.16 1024.26 1024.08 1027.89 1033.33 1035.32 1035.24 1035.16 1034.93 1034.82 1034.92 1035.10 1035.51 1036.00 1036.42 1037.10 1037.39 1037.84 1037.36 1036.63 1035.36 1033.99 1034.52 1035.18 1035.30 1035.59 1036.32 1036.85 1037.45 1037.89 1038.26 1038.22 1037.98 1037.67 1037.21
1007.39 1006.54 1007.76 1009.32 1010.79 1011.78 1012.91 1014.30 1015.62 1016.77 1017.55 1018.45 1019.14 1019.54 1019.62 1019.74 1020.11 1021.90 1024.03 1024.57 1024.69 1024.41 1027.59 1033.40 1034.92 1035.49 1035.53 1035.34 1035.69 1035.95 1036.27 1036.67 1036.64 1037.37 1037.53 1037.47 1037.84 1037.74 1036.68 1034.81 1033.87 1034.73 1035.35 1035.92 1036.28 1036.81 1037.19 1037.72 1037.91 1038.32 1038.21 1037.90 1037.60 1037.37
1006.33 1005.69 1007.10 1008.61 1010.20 1011.11 1012.45 1013.98 1015.30 1016.73 1017.70 1018.68 1019.21 1019.64 1019.99 1020.21 1021.71 1023.19 1024.76 1024.72 1024.72 1025.41 1027.52 1032.16 1035.23 1035.52 1035.67 1035.51 1036.07 1036.81 1036.86 1037.27 1037.93 1038.17 1038.21 1037.72 1038.11 1037.70 1035.75 1033.97 1034.44 1035.05 1035.74 1036.24 1036.65 1037.10 1037.21 1037.70 1038.09 1038.11 1038.25 1037.89 1037.56 1037.01
1005.09 1004.88 1006.22 1007.67 1009.59 1010.34 1011.99 1013.59 1015.01 1016.53 1017.57 1018.30 1018.81 1019.38 1020.02 1021.85 1023.45 1024.67 1024.93 1024.85 1024.81 1025.78 1028.88 1031.30 1033.52 1035.14 1035.80 1036.28 1036.73 1037.06 1037.26 1037.65 1038.70 1038.28 1038.24 1038.34 1037.19 1035.89 1033.72 1033.90 1034.35 1034.95 1035.36 1035.85 1036.69 1037.05 1037.32 1037.52 1037.75 1038.04 1037.99 1037.66 1037.50 1037.14
1003.70 1003.90 1005.37 1006.68 1008.63 1009.72 1011.35 1013.14 1014.69 1016.11 1017.13 1018.08 1018.73 1019.98 1023.54 1025.00 1025.13 1024.86 1024.94 1025.15 1026.06 1028.09 1029.49 1031.92 1033.32 1034.87 1035.42 1036.07 1036.97 1037.24 1037.69 1038.12 1038.38 1038.61 1038.68 1037.97 1035.26 1033.96 1033.91 1033.78 1034.19 1034.98 1035.52 1036.08 1036.63 1036.98 1037.30 1037.56 1037.64 1037.92 1038.01 1037.95 1037.99 1037.73
1002.50 1003.32 1004.30 1005.38 1007.81 1009.16 1010.64 1012.49 1014.21 1015.64 1016.68 1017.97 1020.75 1023.39 1025.13 1025.24 1025.11 1025.65 1026.69 1027.20 1028.45 1029.77 1031.09 1032.64 1033.09 1034.02 1035.79 1035.48 1036.43 1037.66 1037.87 1038.58 1038.42 1038.58 1038.28 1036.49 1034.50 1033.39 1033.43 1033.72 1034.33 1035.18 1035.80 1036.23 1036.61 1036.84 1037.26 1037.51 1037.81 1037.99 1037.96 1038.11 1038.03 1037.81
1001.77 1002.15 1003.70 1004.58 1006.71 1008.42 1009.85 1011.67 1013.39 1014.00 1016.06 1017.56 1019.75 1023.11 1024.79 1025.45 1026.29 1026.95 1028.31 1028.91 1029.13 1029.84 1031.56 1032.22 1033.14 1033.81 1035.38 1035.61 1036.17 1037.88 1037.96 1038.51 1038.24 1038.25 1037.62 1035.17 1032.78 1033.07 1033.51 1033.91 1034.68 1035.37 1036.03 1036.50 1037.02 1037.42 1037.77 1037.99 1038.07 1038.05 1037.96 1038.09 1038.09 1037.84
1000.23 1001.22 1002.73 1003.97 1005.70 1007.66 1009.11 1010.95 1012.42 1014.16 1015.24 1017.71 1019.98 1023.14 1024.33 1026.16 1026.33 1026.48 1027.60 1028.32 1028.86 1029.50 1030.60 1031.53 1032.86 1033.87 1035.42 1035.85 1036.70 1037.14 1037.72 1038.10 1038.03 1037.45 1035.14 1032.65 1032.42 1032.99 1033.38 1034.07 1034.98 1035.64 1036.23 1036.68 1037.31 1037.73 1038.00 1037.96 1038.17 1038.26 1038.21 1038.31 1038.11 1037.83
998.80 1000.61 1002.28 1003.41 1004.86 1006.79 1008.51 1010.61 1011.97 1012.43 1013.96 1017.78 1020.28 1023.30 1023.62 1024.61 1024.04 1023.50 1024.01 1025.11 1026.56 1027.65 1029.01 1030.25 1031.99 1033.19 1034.63 1035.51 1036.39 1036.89 1038.02 1037.66 1037.10 1035.82 1032.64 1031.20 1031.74 1032.69 1033.33 1034.00 1034.76 1035.61 1036.10 1036.56 1037.15 1037.61 1037.83 1037.89 1037.98 1038.26 1038.39 1038.48 1038.34 1037.98
997.61 1000.06 1001.84 1002.79 1004.08 1006.27 1008.36 1009.88 1010.71 1011.69 1014.59 1017.71 1018.88 1020.31 1021.64 1021.76 1022.57 1023.18 1023.77 1024.94 1026.41 1027.55 1028.29 1030.04 1031.60 1032.57 1034.18 1035.29 1035.99 1036.94 1037.18 1036.07 1034.61 1031.93 1030.49 1030.60 1031.47 1032.39 1033.27 1033.89 1034.46 1035.25 1035.92 1036.53 1037.14 1037.54 1037.86 1038.08 1038.05 1038.00 1038.15 1038.20 1038.20 1038.03
996.71 1000.08 1001.46 1001.97 1003.33 1005.83 1008.06 1009.83 1011.47 1013.57 1015.79 1016.98 1018.30 1019.55 1020.61 1021.33 1023.22 1023.72 1024.23 1024.96 1025.73 1026.95 1028.04 1028.95 1030.96 1032.15 1033.26 1033.54 1034.54 1034.08 1033.94 1032.27 1030.16 1029.85 1029.79 1030.54 1031.31 1032.21 1033.11 1033.80 1034.42 1035.11 1035.46 1036.15 1036.79 1037.20 1037.64 1038.00 1038.20 1038.29 1038.24 1038.23 1038.14 1038.01
996.36 997.96 1000.23 1001.19 1002.98 1005.69 1007.41 1009.60 1012.01 1013.78 1015.16 1016.67 1017.72 1017.93 1018.29 1019.14 1020.19 1022.10 1022.91 1023.97 1024.98 1025.76 1026.94 1028.27 1029.87 1031.18 1032.39 1032.40 1032.41 1031.98 1030.43 1028.60 1028.50 1029.08 1029.73 1030.17 1030.89 1031.88 1032.92 1033.68 1034.44 1035.20 1035.44 1035.86 1036.46 1036.96 1037.44 1037.94 1038.32 1038.45 1038.22 1038.00 1038.07 1037.94
995.10 997.49 999.94 1000.81 1002.98 1006.01 1007.77 1009.64 1011.43 1013.37 1015.64 1016.80 1017.18 1017.89 1018.44 1018.58 1019.62 1021.32 1022.28 1023.27 1024.20 1025.18 1026.04 1026.77 1027.99 1029.55 1029.43 1029.39 1029.09 1027.92 1027.99 1028.41 1028.80 1029.46 1030.02 1030.67 1031.36 1032.30 1033.13 1033.75 1034.51 1035.19 1035.55 1035.98 1036.33 1036.71 1037.23 1037.71 1037.77 1037.88 1038.15 1037.92 1037.68 1037.71
994.48 996.75 999.89 1000.79 1001.94 1005.29 1008.39 1010.70 1011.43 1014.06 1016.50 1017.05 1017.35 1017.89 1018.35 1018.88 1019.52 1019.71 1020.62 1022.24 1023.10 1023.82 1025.07 1026.03 1026.67 1026.77 1026.63 1026.35 1025.85 1026.28 1026.96 1027.46 1028.47 1029.54 1030.07 1030.68 1031.54 1032.53 1033.23 1033.97 1034.54 1035.16 1035.66 1036.03 1036.41 1036.62 1037.02 1037.46 1037.72 1037.93 1037.93 1037.83 1037.56 1037.74
994.58 996.36 998.83 1000.08 1001.76 1005.65 1009.25 1011.69 1012.16 1013.96 1016.36 1017.14 1017.89 1018.58 1018.93 1019.59 1019.68 1020.45 1021.52 1022.31 1023.12 1024.10 1024.95 1025.00 1024.58 1024.38 1024.32 1024.49 1024.98 1025.37 1026.25 1027.21 1028.09 1029.37 1030.73 1031.56 1031.97 1032.78 1033.33 1033.85 1034.49 1035.13 1035.70 1036.14 1036.44 1036.64 1036.98 1037.30 1037.71 1037.98 1037.95 1037.73 1037.67 1037.75
995.25 997.09 998.47 1000.00 1004.07 1006.05 1008.67 1011.10 1012.90 1014.35 1015.92 1016.92 1018.12 1018.54 1019.70 1020.06 1020.78 1021.50 1022.45 1022.20 1022.85 1023.06 1023.21 1023.09 1023.54 1023.88 1024.37 1024.69 1024.94 1025.54 1026.39 1026.97 1027.21 1027.18 1028.69 1030.89 1031.97 1032.53 1033.40 1034.01 1034.62 1035.22 1035.52 1035.77 1035.91 1036.30 1036.70 1036.88 1037.38 1037.63 1037.84 1037.79 1037.88 1037.96
993.43 996.30 998.63 1001.43 1004.78 1007.83 1009.26 1010.72 1011.85 1013.61 1015.28 1016.69 1018.01 1018.76 1019.75 1020.55 1021.20 1021.62 1022.54 1021.85 1021.19 1021.65 1022.15 1022.53 1023.09 1023.72 1024.28 1024.94 1025.27 1025.58 1026.17 1026.98 1027.68 1028.55 1029.93 1031.16 1031.83 1032.55 1033.19 1033.89 1034.46 1034.90 1035.21 1035.51 1035.75 1036.02 1036.37 1036.68 1037.12 1037.52 1037.67 1037.73 1037.84 1037.85
994.23 996.81 999.60 1002.05 1005.74 1008.32 1010.35 1010.81 1011.78 1013.46 1015.22 1016.90 1017.78 1018.79 1019.91 1020.52 1020.93 1021.40 1021.24 1020.63 1020.51 1020.86 1021.52 1022.29 1022.77 1023.23 1023.86 1024.94 1025.55 1026.01 1026.53 1026.94 1027.80 1028.99 1030.07 1030.74 1031.76 1032.46 1033.17 1033.86 1034.21 1034.58 1034.83 1035.26 1035.61 1035.95 1036.20 1036.58 1036.99 1037.38 1037.59 1037.75 1037.75 1037.75
994.98 998.81 1001.36 1003.27 1005.51 1008.15 1010.28 1011.19 1011.32 1012.57 1015.04 1016.20 1017.32 1018.59 1019.29 1019.81 1020.78 1020.64 1019.59 1019.57 1019.76 1020.51 1021.23 1021.91 1022.61 1023.66 1024.41 1025.14 1025.46 1026.04 1026.79 1026.99 1027.77 1028.99 1030.03 1030.79 1031.79 1032.60 1032.99 1033.54 1034.04 1034.42 1034.49 1034.86 1035.47 1035.75 1036.16 1036.46 1036.72 1036.98 1037.32 1037.49 1037.72 1037.75
996.72 1001.23 1001.81 1004.00 1005.59 1007.02 1008.65 1009.69 1010.15 1010.98 1013.33 1015.15 1016.11 1017.47 1018.22 1018.98 1019.28 1018.81 1018.26 1018.51 1019.08 1019.60 1020.43 1021.45 1022.29 1022.47 1022.94 1023.94 1025.20 1026.26 1026.84 1027.05 1027.75 1028.68 1030.06 1030.64 1031.49 1032.66 1033.25 1033.55 1033.91 1034.32 1034.70 1034.85 1035.18 1035.47 1035.92 1036.45 1036.72 1036.91 1037.11 1037.26 1037.51 1037.63
998.50 1000.66 1001.66 1002.72 1004.52 1005.27 1007.12 1008.32 1009.21 1010.01 1011.47 1013.49 1015.15 1016.30 1016.78 1017.30 1017.80 1016.26 1015.79 1016.47 1017.21 1018.02 1019.19 1019.97 1020.54 1021.54 1022.53 1023.16 1024.40 1025.81 1026.54 1026.90 1027.75 1028.75 1029.98 1030.50 1030.95 1031.53 1032.32 1033.03 1033.66 1034.28 1034.57 1034.54 1034.64 1035.09 1035.55 1035.97 1036.26 1036.65 1036.85 1037.15 1037.37 1037.51
999.48 1000.74 1001.53 1001.44 1002.14 1003.56 1006.02 1007.17 1007.77 1008.37 1009.81 1011.50 1013.20 1014.51 1014.98 1015.45 1014.71 1014.21 1014.20 1014.40 1015.62 1017.39 1018.41 1018.91 1019.39 1020.23 1021.51 1023.01 1024.45 1025.56 1026.48 1027.00 1027.42 1028.27 1029.34 1030.41 1031.04 1031.23 1031.64 1032.15 1032.59 1032.95 1033.64 1034.10 1034.39 1034.80 1035.08 1035.45 1035.82 1036.27 1036.53 1036.75 1036.93 1037.09
999.02 1000.08 1000.22 1001.06 1002.06 1003.14 1004.26 1006.04 1006.88 1007.03 1007.83 1009.07 1010.80 1012.09 1012.17 1012.12 1012.35 1012.71 1012.72 1013.47 1014.40 1016.31 1017.79 1018.88 1019.65 1020.50 1021.88 1023.15 1024.30 1025.49 1026.81 1027.57 1028.44 1029.19 1030.12 1030.89 1031.33 1031.78 1032.03 1032.30 1032.55 1032.83 1033.06 1033.61 1034.08 1034.62 1034.90 1035.20 1035.57 1035.87 1036.18 1036.44 1036.68 1036.88
998.75 999.56 999.85 1001.23 1002.39 1003.17 1003.79 1004.06 1005.15 1005.46 1006.30 1007.57 1009.03 1010.78 1011.58 1011.81 1011.69 1011.29 1012.17 1013.51 1014.75 1015.80 1017.05 1018.74 1020.68 1021.74 1022.90 1023.89 1024.67 1025.54 1026.34 1026.89 1027.86 1028.98 1029.76 1030.51 1031.22 1031.57 1031.95 1032.21 1032.58 1032.76 1033.17 1033.48 1033.93 1034.29 1034.57 1034.87 1035.23 1035.57 1035.88 1036.18 1036.43 1036.74
999.75 1000.19 1001.13 1002.27 1002.62 1003.81 1004.55 1004.42 1004.81 1005.98 1007.27 1008.03 1008.60 1010.14 1011.76 1012.37 1012.23 1012.35 1012.92 1013.81 1014.94 1015.80 1017.19 1018.77 1020.26 1021.47 1022.69 1023.63 1025.00 1026.15 1026.50 1026.60 1026.80 1027.32 1028.39 1029.22 1029.78 1030.28 1031.10 1031.59 1032.08 1032.66 1033.16 1033.48 1033.93 1034.20 1034.48 1034.86 1035.28 1035.65 1035.90 1036.14 1036.40 1036.55
1000.06 1000.64 1001.54 1002.94 1004.42 1004.99 1004.83 1005.24 1006.04 1006.93 1007.44 1007.99 1008.26 1008.82 1010.31 1012.31 1013.86 1014.69 1014.72 1014.93 1015.54 1016.59 1018.30 1019.87 1020.75 1021.64 1022.27 1023.47 1024.30 1025.34 1026.52 1027.11 1027.19 1027.62 1028.00 1028.43 1029.21 1029.80 1030.37 1030.96 1031.51 1032.16 1032.78 1033.31 1033.74 1034.03 1034.37 1034.75 1035.06 1035.21 1035.38 1035.51 1035.77 1035.98
1000.39 1001.21 1002.02 1003.33 1005.08 1005.86 1005.77 1006.00 1006.88 1007.84 1008.66 1008.84 1009.23 1009.57 1010.73 1011.74 1013.46 1015.42 1016.77 1016.65 1017.28 1018.14 1019.22 1019.50 1020.19 1021.16 1022.02 1022.96 1023.65 1024.40 1024.98 1025.96 1026.91 1027.46 1027.82 1028.12 1028.60 1029.26 1029.98 1030.81 1031.56 1032.14 1032.64 1033.14 1033.55 1033.81 1034.03 1034.26 1034.57 1034.71 1034.78 1035.04 1035.25 1035.56
1001.82 1002.54 1002.86 1003.50 1004.29 1005.63 1006.48 1006.04 1007.89 1009.52 1010.30 1010.78 1011.56 1012.02 1012.31 1012.58 1014.19 1016.49 1017.33 1017.37 1017.26 1017.71 1018.52 1019.42 1020.20 1021.25 1022.11 1022.77 1023.48 1024.47 1025.12 1025.97 1026.66 1027.17 1027.53 1027.84 1028.26 1029.07 1030.03 1030.81 1031.40 1031.89 1032.39 1032.85 1033.16 1033.31 1033.37 1033.67 1034.00 1034.04 1034.18 1034.43 1034.75 1035.07
Wind_Speed
18 29 28 27 25 24 22 19 17 13 11 10 11 13 14 17 14 6 6 4 4 7 6 5 5 3 4 3 5 8 6 2 2 2 2 2 2 2 3 1 2 3 3 2 2 3 3 5 3 3 5 9 12 13
22 31 29 28 27 25 24 20 18 15 13 12 13 15 16 16 14 6 7 6 10 11 8 8 12 9 5 4 7 4 2 4 4 4 1 3 3 3 1 2 3 3 2 1 5 4 6 3 2 1 3 9 9 13
23 32 31 29 28 27 25 22 18 16 14 13 12 12 12 13 9 8 8 7 8 8 6 3 5 7 11 6 4 3 1 4 4 4 3 2 2 3 3 3 3 4 3 3 2 5 3 2 2 4 6 8 10 11
22 32 32 30 29 28 27 24 21 18 15 15 14 15 17 19 16 9 6 3 5 8 8 4 4 5 10 6 4 3 9 7 6 2 3 2 1 2 1 3 4 2 9 6 5 4 2 4 2 2 5 7 9 11
22 34 34 32 31 30 29 26 23 20 19 19 19 20 22 23 25 15 8 4 3 4 8 6 3 7 9 8 13 11 9 6 3 3 2 1 3 3 1 2 5 8 6 5 1 9 3 6 1 1 4 7 10 12
23 35 36 34 33 31 31 28 25 23 22 21 21 23 22 18 5 3 6 5 5 3 10 6 1 3 6 9 12 12 7 5 3 3 2 2 2 2 3 4 2 9 6 1 5 7 5 3 1 0 4 7 9 10
23 35 37 36 34 34 32 30 27 25 25 23 19 13 13 14 8 7 3 3 2 2 8 7 4 3 3 3 3 4 6 4 3 3 1 1 3 2 2 5 6 10 9 7 9 8 4 3 2 3 5 7 8 8
21 36 38 38 36 36 35 32 31 29 25 23 24 26 27 30 19 7 6 4 4 7 6 7 3 3 2 3 3 3 2 2 5 2 1 1 2 2 6 7 7 11 10 8 8 2 4 4 2 1 4 6 8 10
22 38 40 40 38 38 37 35 34 31 32 28 24 17 7 9 4 3 1 1 4 5 7 4 7 5 2 3 2 2 2 2 1 1 1 2 3 8 4 10 14 15 12 12 9 6 4 4 3 2 4 6 8 10
23 40 42 41 40 41 40 38 36 34 28 21 5 6 4 2 6 5 2 3 7 6 5 6 3 5 3 2 2 1 2 2 1 2 0 4 6 5 3 8 13 14 8 14 11 7 6 5 4 1 4 5 6 9
26 40 41 44 43 44 43 41 37 30 12 5 4 4 1 3 1 5 4 5 2 4 3 3 3 7 2 3 4 2 2 1 1 2 2 3 5 4 9 11 13 12 11 9 4 4 5 4 3 1 4 5 6 8
35 42 45 46 46 45 46 43 37 11 5 10 13 9 3 4 4 7 2 1 1 5 4 5 5 4 4 2 4 2 3 1 2 3 3 5 4 5 11 14 14 12 11 8 6 6 5 3 3 4 4 4 5 7
41 44 44 49 49 47 46 44 24 37 22 5 8 6 3 1 5 8 9 4 4 8 8 7 7 4 4 3 5 3 3 2 3 3 6 5 4 8 12 14 14 11 10 9 7 5 4 4 3 4 3 3 5 7
45 43 47 49 49 48 47 38 45 21 9 6 7 7 9 6 7 7 8 7 5 8 13 9 6 4 3 3 3 5 2 2 3 5 8 3 10 13 14 14 14 13 12 11 8 7 5 4 3 1 2 3 5 7
46 46 46 48 51 49 45 43 31 5 5 6 7 9 7 4 5 4 7 9 5 11 10 8 6 4 3 6 2 5 3 5 7 7 3 5 13 16 16 15 15 13 11 10 8 6 5 3 2 1 2 2 4 6
46 42 34 49 53 48 46 26 5 5 4 6 4 7 6 7 5 5 6 8 8 10 5 4 6 5 3 7 6 8 9 10 5 5 4 9 16 17 16 15 14 11 12 10 8 7 5 3 1 2 2 2 4 5
46 7 43 50 53 47 42 10 4 3 7 7 4 2 7 7 10 8 7 9 12 9 5 5 7 4 7 4 5 6 9 4 4 5 6 13 17 16 15 14 13 11 11 10 8 6 4 3 1 2 2 2 3 4
22 27 49 50 41 35 5 5 6 6 5 3 6 8 2 3 13 8 7 14 10 4 5 5 8 6 8 11 7 7 6 3 2 5 8 11 15 15 13 15 13 11 10 9 8 7 5 4 3 2 3 2 2 4
27 35 50 52 33 11 5 3 3 7 4 3 4 4 3 6 4 8 11 13 4 6 9 4 5 7 6 5 4 6 8 6 7 8 8 14 15 14 13 12 12 11 10 9 8 5 3 3 2 2 2 1 2 3
49 54 54 46 29 6 7 3 3 7 5 4 4 3 5 4 8 10 13 7 6 6 4 6 6 4 5 5 5 5 7 9 11 11 10 8 9 13 13 11 9 10 8 6 5 5 4 3 3 3 2 1 2 2
42 39 49 27 6 6 6 5 5 5 6 5 7 4 4 5 8 10 7 5 4 4 5 5 4 4 3 3 5 8 10 11 11 10 16 12 9 9 9 8 9 7 6 6 6 5 5 3 3 3 2 2 1 1
6 41 8 7 8 5 6 2 8 6 5 6 5 4 6 5 5 6 5 3 4 5 4 5 6 6 7 7 9 10 13 12 10 11 14 14 9 9 9 8 8 7 6 6 5 5 4 3 3 3 3 2 2 1
31 8 6 7 9 5 6 1 6 4 8 6 5 6 4 4 5 8 6 4 3 3 5 5 7 9 10 10 11 12 13 16 12 10 11 9 8 8 8 8 7 8 7 5 4 4 4 4 4 3 3 3 2 2
17 8 6 6 6 7 7 4 4 8 6 5 6 7 7 5 6 5 6 6 5 7 7 12 11 11 10 12 10 11 11 10 11 11 9 10 9 8 7 7 6 5 4 5 5 4 4 4 4 4 4 4 3 2
12 3 8 8 4 8 6 7 5 6 7 6 8 6 7 6 6 6 6 7 9 9 11 11 11 11 13 10 10 9 7 11 11 12 7 8 8 7 5 4 5 5 6 6 6 6 5 4 4 4 4 4 4 3
10 4 5 7 7 7 9 9 8 9 9 7 5 7 6 6 7 9 9 11 13 13 15 15 14 12 10 11 13 10 9 9 10 10 8 8 9 10 9 8 7 6 6 6 6 7 7 6 6 6 5 5 6 4
8 5 3 2 8 9 7 6 6 6 7 9 9 9 8 8 9 5 8 12 13 13 12 12 13 13 13 12 11 9 8 9 9 8 8 8 6 6 8 9 9 5 8 9 8 7 8 8 7 7 6 5 5 5
5 5 12 10 7 4 9 6 7 7 7 8 10 10 17 14 8 8 9 16 16 15 12 10 10 10 11 11 10 11 9 8 10 10 8 6 3 3 4 3 3 9 7 8 8 7 6 7 7 7 7 7 6 5
3 7 9 14 7 5 3 5 4 4 7 10 6 6 5 2 2 9 14 15 15 15 15 13 9 9 9 9 9 9 10 11 13 13 13 8 6 6 6 6 5 5 5 6 10 8 8 7 7 7 7 6 5 5
5 2 6 5 5 4 1 2 6 8 5 4 7 6 5 3 6 10 14 15 15 15 15 13 12 13 13 13 11 9 6 7 9 12 12 12 10 6 9 8 7 6 5 5 5 5 7 6 6 5 6 5 6 6
3 3 6 5 5 4 9 11 10 6 4 6 9 13 11 8 7 6 9 12 14 14 14 12 11 11 13 13 13 13 9 5 4 4 4 7 7 7 8 8 6 6 7 7 7 7 9 9 8 9 9 9 9 8
4 4 8 10 9 7 8 5 6 12 8 9 8 11 12 11 11 4 4 10 12 13 17 14 13 13 12 11 10 9 10 11 9 7 9 7 6 6 7 6 6 6 7 8 8 9 11 11 9 9 9 10 9 10
17 16 14 10 6 6 4 8 9 9 9 9 8 11 11 8 10 5 2 3 11 12 13 11 10 11 13 13 12 8 11 9 13 15 13 13 14 11 7 5 6 7 10 10 10 10 12 12 10 10 10 10 10 10
Wind_Direction
279 182 184 183 183 179 180 173 169 167 166 160 152 144 143 140 132 79 85 17 91 93 70 17 21 119 122 159 140 137 138 186 107 112 172 135 226 127 242 116 222 249 185 146 139 241 268 134 168 287 357 320 331 323
284 179 183 183 183 177 171 166 163 160 160 152 150 146 146 142 138 120 94 82 67 74 92 92 80 50 22 16 119 163 2 135 146 110 169 124 168 184 291 244 194 229 264 304 229 21 87 130 303 285 296 315 322 319
284 179 181 180 182 175 164 161 158 155 153 146 142 146 151 153 138 110 113 137 77 105 101 86 17 2 28 8 326 134 164 126 122 23 122 110 179 187 210 220 159 196 183 249 261 146 196 165 219 246 295 309 315 319
287 183 178 177 179 173 159 157 153 150 145 140 137 132 128 125 112 102 119 118 90 109 103 71 1 30 340 358 35 27 113 93 96 70 89 133 170 233 20 25 263 50 161 189 243 174 145 153 196 316 302 313 323 334
285 188 177 176 175 170 155 153 150 145 141 139 136 131 125 117 109 96 90 56 22 97 122 115 137 22 27 59 72 77 94 95 96 93 78 108 92 181 99 255 232 189 173 195 93 137 119 140 145 303 310 333 342 338
277 186 174 174 172 164 153 149 147 143 139 137 134 131 126 125 147 120 59 45 21 96 106 119 66 39 34 57 61 53 49 58 65 83 96 105 69 269 209 249 133 176 176 141 149 133 109 109 127 88 323 335 333 331
264 182 172 171 170 159 150 145 141 139 135 132 129 132 121 110 74 57 96 77 63 82 93 109 105 59 345 23 55 42 40 58 47 95 86 113 142 238 245 244 143 170 155 131 126 131 144 179 105 357 317 324 324 326
254 182 172 169 166 153 146 142 137 136 131 127 118 106 98 97 121 62 28 60 82 90 76 110 80 157 353 83 94 6 61 61 31 82 164 193 146 233 247 214 154 155 152 156 156 145 81 101 140 298 321 325 341 352
237 181 171 167 163 149 144 139 138 136 133 129 122 119 71 35 62 111 44 52 60 78 107 95 135 144 145 82 73 100 356 82 340 125 113 244 172 230 244 174 169 166 169 167 155 161 164 162 115 3 336 338 347 347
215 178 171 164 159 148 143 141 140 139 136 130 75 60 59 24 335 284 14 33 28 10 34 83 135 113 179 143 96 131 16 76 185 73 285 230 259 268 233 193 169 169 165 152 155 177 179 168 143 6 330 329 342 344
204 174 169 157 155 148 143 143 142 139 124 69 89 80 152 304 83 30 53 68 335 64 57 93 102 126 193 148 119 356 122 75 219 108 257 246 259 212 173 166 162 160 156 161 143 138 142 124 134 321 306 337 345 344
199 172 166 157 152 149 146 146 150 129 135 144 115 104 123 55 56 88 27 62 209 161 136 124 118 102 126 138 110 127 107 179 232 129 242 248 229 158 167 159 155 154 152 143 152 143 138 159 201 250 288 343 348 337
180 168 164 157 151 150 149 151 139 124 121 83 67 84 102 323 101 157 180 215 189 165 164 156 132 116 131 95 83 125 143 148 133 223 244 242 138 160 162 152 152 151 149 146 151 151 169 186 206 251 328 6 340 341
168 167 165 158 151 151 151 143 143 140 97 101 130 135 191 166 202 186 163 150 123 135 140 126 110 109 121 102 132 120 93 156 206 244 238 194 176 164 160 156 149 157 158 161 162 164 176 191 201 250 352 340 337 340
167 162 164 159 151 153 149 151 155 97 106 134 121 186 174 119 68 87 103 111 119 144 132 115 90 107 112 113 103 119 128 227 223 234 218 160 161 160 161 162 158 157 161 160 161 167 178 192 212 142 47 341 339 331
155 155 169 160 151 149 152 139 91 84 55 117 120 108 110 97 119 134 129 118 140 142 112 83 119 127 129 133 151 199 166 217 217 209 164 151 159 162 163 164 161 156 159 157 161 168 170 193 221 30 326 341 341 347
155 151 163 158 148 149 150 118 110 119 137 138 151 127 162 132 151 151 149 157 154 152 139 136 133 142 117 142 200 193 213 209 174 160 163 169 162 160 160 157 155 155 156 157 159 163 166 161 118 260 286 355 340 3
159 148 158 152 143 150 58 42 101 114 121 130 142 146 165 116 134 136 130 148 152 153 148 163 126 167 180 172 200 211 199 131 104 148 160 159 154 155 156 154 154 159 155 155 161 154 161 174 186 221 265 308 343 352
148 150 157 157 149 113 105 61 48 100 80 92 93 80 103 112 36 116 139 148 97 112 117 139 152 179 192 206 187 165 166 164 158 157 152 154 152 153 150 150 153 156 156 157 162 167 157 167 212 240 251 284 1 355
150 152 158 156 144 94 93 65 78 100 138 140 88 98 88 109 134 132 140 133 123 133 148 188 193 191 177 176 176 163 153 140 135 133 142 152 150 150 156 153 159 159 153 149 156 154 155 169 209 229 237 255 289 5
145 161 156 141 68 71 98 126 98 116 120 101 126 84 91 95 125 142 155 154 151 196 174 178 163 139 114 109 127 134 139 156 167 162 157 153 160 151 148 150 148 155 166 171 174 171 183 194 204 208 224 237 216 307
115 151 101 70 85 65 81 53 112 110 90 119 112 104 112 126 135 150 155 205 199 156 167 155 147 147 137 148 151 153 148 150 142 127 126 134 146 150 154 156 157 166 175 176 170 178 189 196 192 196 211 207 199 247
128 98 70 77 93 83 102 246 98 110 121 138 113 102 124 144 156 153 191 211 163 153 142 138 141 140 131 135 136 136 143 139 136 140 148 147 146 147 148 159 168 165 166 167 171 181 190 173 180 197 192 202 214 223
78 67 86 96 95 104 135 155 123 113 108 134 120 125 141 132 161 216 200 186 160 144 146 143 139 129 123 142 145 148 157 150 140 141 145 144 150 161 161 162 168 173 153 144 163 169 167 174 173 186 196 201 215 232
92 83 99 93 115 121 123 139 124 102 122 145 129 138 153 156 187 191 197 176 163 157 150 151 155 157 148 144 145 149 160 152 151 147 156 158 138 130 144 155 166 166 159 154 165 169 173 179 185 195 197 201 209 212
89 127 123 136 139 126 150 139 161 145 121 119 134 134 151 150 188 215 180 161 166 158 162 164 161 153 149 152 148 156 159 158 147 151 160 164 163 163 164 168 174 193 194 188 167 176 180 182 185 195 200 199 205 208
107 130 143 115 116 117 110 91 120 107 119 143 153 156 154 178 211 177 154 164 152 161 163 161 158 152 145 145 149 144 145 154 159 156 143 161 166 163 165 175 189 182 168 177 178 184 186 184 188 196 197 186 200 204
109 158 144 139 108 148 119 126 152 156 143 147 137 170 173 190 172 159 171 162 146 143 139 136 134 128 139 143 134 128 114 110 100 99 99 90 98 138 156 148 143 148 152 172 180 185 185 185 188 189 193 196 192 196
96 121 117 102 95 72 65 121 139 137 133 157 120 135 141 74 138 150 145 140 140 139 132 126 121 129 125 125 130 135 138 141 140 145 153 162 169 197 183 163 152 148 150 156 179 183 185 182 186 191 195 193 185 177
86 54 104 72 60 77 104 97 108 119 80 120 123 114 96 58 90 127 134 140 144 143 138 133 139 144 143 140 138 142 159 167 167 162 165 180 188 154 163 169 170 164 153 153 162 165 177 179 178 169 167 170 180 180
78 81 74 73 85 81 102 101 92 94 89 90 96 116 118 117 84 90 132 131 129 125 135 150 148 152 147 152 155 153 166 198 176 155 145 141 145 152 161 167 162 154 163 171 179 183 181 183 190 190 190 190 190 188
64 79 120 114 109 102 95 65 79 101 96 96 99 110 114 117 106 96 136 141 149 152 166 155 152 159 160 160 161 165 168 161 165 167 153 149 150 147 142 141 143 150 166 184 195 198 194 192 190 195 196 199 195 197
94 100 102 94 88 81 134 113 91 83 68 77 85 106 113 97 105 109 123 187 171 158 159 157 148 147 152 153 156 148 151 160 165 167 163 153 151 149 136 138 150 167 180 194 200 199 195 197 202 196 197 200 200 200